Weather History for Puebla, Mexico

Change the Weather History Date:

Thursday, October 4, 2012

  Actual Average Record
Temperature  
Mean Temperature 58 °F -  
Max Temperature 75 °F 69 °F 76 °F (2013)
Min Temperature 42 °F 51 °F 39 °F (2010)
Degree Days  
Heating Degree Days 6    
Growing Degree Days 8 (Base 50)    
Moisture  
Dew Point 37 °F    
Average Humidity 43    
Maximum Humidity 88    
Minimum Humidity 14    
Precipitation  
Precipitation 0.00 in - - ()
Sea Level Pressure  
Sea Level Pressure 30.26 in    
Wind  
Wind Speed 4 mph ()    
Max Wind Speed 16 mph    
Max Gust Speed -    
Visibility 7.9 miles    
Events      
Averages and records for this station are not official NWS values.
T = Trace of Precipitation, MM = Missing Value Source: Averaged Metar Reports

Daily Weather History Graph

Daily Weather History Graph

Search for Another Location

Airport:

Trip Planner

Search our weather history database for the weather conditions in past years. The results will help you decide how hot, cold, wet, or windy it might be!

Date:

Astronomy

Oct. 04, 2012 Rise Set
Actual Time 7:24 AM CDT 7:18 PM CDT
Civil Twilight 7:03 AM CDT 7:40 PM CDT
Nautical Twilight 6:37 AM CDT 8:06 PM CDT
Astronomical Twilight 6:12 AM CDT 8:31 PM CDT
Moon 10:31 PM CDT (10/4) 11:07 AM CDT (10/4)
Length of Visible Light 12h 37m
Length of Day
11h 53m
Waning Gibbous, 82% of the Moon is Illuminated
Oct 4
Waning Gibbous
Oct 8
Last Quarter
Oct 15
New
Oct 21
First Quarter
Oct 29
Full

Hourly Weather History & Observations

Time (CDT) Temp. Windchill Dew Point Humidity Pressure Visibility Wind Dir Wind Speed Gust Speed Precip Events Conditions
12:56 AM 57 °F - 31 °F 24% 29.94 in 3 mi Calm Calm - -   Scattered Clouds
6:06 AM 44.6 °F 40.2 °F 35.6 °F 71% 30.42 in 8.0 mi NW 8.1 mph - N/A   Scattered Clouds
6:48 AM 44.6 °F 41.4 °F 35.6 °F 71% 30.11 in 8.0 mi NNW 5.8 mph - N/A   Scattered Clouds
6:55 AM 52 °F - 37 °F 45% 30.01 in 3 mi Calm Calm - -   Mostly Cloudy
7:46 AM 42.8 °F 38.0 °F 33.8 °F 70% 30.44 in 8.0 mi North 8.1 mph - N/A   Mostly Cloudy
8:43 AM 42.8 °F 40.1 °F 32.0 °F 66% 30.44 in 6.0 mi NNW 4.6 mph - N/A   Mostly Cloudy
9:50 AM 56 °F - 39 °F 40% 30.08 in 12 mi Calm Calm - -   Mostly Cloudy
10:04 AM 57.2 °F - 33.8 °F 41% 30.46 in 8.0 mi North 9.2 mph - N/A   Mostly Cloudy
10:49 AM 64.4 °F - 26.6 °F 24% 30.46 in 8.0 mi NNW 5.8 mph - N/A   Mostly Cloudy
11:41 AM 69.8 °F - 17.6 °F 14% 30.44 in 8.0 mi North 9.2 mph - N/A   Mostly Cloudy
12:43 PM 71.6 °F - 26.6 °F 19% 30.43 in 8.0 mi NNW 3.5 mph - N/A   Mostly Cloudy
12:50 PM 69 °F - 33 °F 16% 30.06 in 12 mi West 2.2 mph - -   Partly Cloudy
1:40 PM 73.4 °F - 35.6 °F 25% 30.39 in 8.0 mi ESE 5.8 mph - N/A   Mostly Cloudy
2:41 PM 73.4 °F - 37.4 °F 27% 30.36 in 8.0 mi ESE 5.8 mph - N/A   Mostly Cloudy
3:40 PM 75 °F - 35 °F 14% 29.91 in 12 mi NNE 2.2 mph - -   Partly Cloudy
3:44 PM 75.2 °F - 37.4 °F 25% 30.35 in 8.0 mi SSE 4.6 mph - N/A   Mostly Cloudy
4:45 PM 73.4 °F - 37.4 °F 27% 30.33 in 8.0 mi Calm Calm - N/A   Mostly Cloudy
5:49 PM 68.0 °F - 46.4 °F 46% 30.34 in 8.0 mi SSE 11.5 mph - N/A   Mostly Cloudy
6:48 PM 64.4 °F - 60.8 °F 88% 30.37 in 8.0 mi SSW 16.1 mph - N/A   Mostly Cloudy
7:00 PM 68 °F - 56 °F 55% 29.85 in 12 mi SSE 2.2 mph - -  
7:40 PM 60.8 °F - 51.8 °F 72% 30.39 in 8.0 mi SW 4.6 mph - N/A   Mostly Cloudy
9:44 PM 55.4 °F - 41.0 °F 58% 30.45 in 9.0 mi North 5.8 mph - N/A   Scattered Clouds
9:50 PM 60 °F - 40 °F 35% 29.88 in 3 mi Calm Calm - -   Partly Cloudy
11:46 PM 48.2 °F - 37.4 °F 66% 30.44 in 6.0 mi North 5.8 mph - N/A   Scattered Clouds